THORAD AGENA D DEB, 10136

Orbit data source: Space-Track

THORAD AGENA D DEB, 10136 is space debris in SSO originally from a launch on Wed, 08 Apr 1970 UTC launched from the Air Force Western Test Range (AFWTR). Debris objects in space refer to the collection of defunct objects orbiting the Earth. Examples of debris include non-operational satellites, rocket bodies, and fragments generated from explosions, collisions, or faulty payload assembly.

Loading next visibility...
Identifier
10136, 1970-025NQ
Orbit
SSO
Country
Flag of USUS
Related business
Manufacturer
Unknown
Mission
Spacecraft
Bus & Motor
Unknown
Mass
Unknown
Launch date (UTC)
1970-04-08 (56 years ago)
Launch vehicle
Unknown
Launch site
Air Force Western Test Range (AFWTR)
Object type
Payload
Rocket body
Debris
Shape & HBR
Unknown shape, 0.3 m
Radar Cross Section
Small (<0.1 m²)

Expand to show TLE details & history
Last TLE update: 17 hours ago

TLE from 17 hours ago
0 THORAD AGENA D DEB
1 10136U 70025NQ  25352.89011929  .00000012  00000-0  90403-4 0  9994
2 10136 100.1417 319.9258 0001777  79.0290 336.8948 13.52006999746139
Epoch: 2025-12-18T21:21Z
TLE epoch observation values (Epoch: 2025-12-18T21:21:46.306Z)
Latitude
54.71273°
Longitude
-102.82013°
Altitude
1,072.598 km
Speed
7.322 km/s
True Right ascension
20h 21m 26s
True Declination
54° 33' 26"
Sunlit
Object was in daylight at epoch
Visualization orbit readout
Latitude
Unknown
Longitude
Unknown
Altitude
Unknown
Speed
Unknown
Apparent Right ascension
Unknown
Apparent Declination
Unknown
Sunlit
N/A
Visualization observer readout
Local Sidereal Time
13:16:48
Azimuth
Unknown
Elevation
Unknown
Doppler factor
Unknown
Orbital elements
Apogee altitude
1,063.528 km
Perigee altitude
1,060.883 km
Semi-major axis
7,440.342 km
Eccentricity
0.00018
Inclination
100.1417°
RAAN
319.9258°
Arg. of periapsis
79.029°
True anomaly
336.88681°
Mean anomaly
336.8948°
Eccentric anomaly
336.8908°
Mean motion
3.38185 °/min
Orbital period
106.45 mins
BSTAR
0.000090403
Loading maneuver chart data...
Computing Atmospheric mass density...

Documentation

Showing up to 5 results
|